Time,TemperatureF,DewpointF,PressureIn,WindDirection,WindDirectionDegrees,WindSpeedMPH,WindSpeedGustMPH,Humidity,HourlyPrecipIn,Conditions,Clouds,dailyrainin,SoftwareType,DateUTC
2013-07-31 00:02:00,59.2,58.9,30.11,SSW,202,0.0,-999.0,99,-99.99,,,0.00,Acu-Link.com,2013-07-31 04:02:00,
2013-07-31 00:17:00,59.4,59.1,30.11,South,180,0.0,-999.0,99,-99.99,,,0.00,Acu-Link.com,2013-07-31 04:17:00,
2013-07-31 00:33:00,59.5,59.2,30.11,South,180,0.0,-999.0,99,-99.99,,,0.00,Acu-Link.com,2013-07-31 04:33:00,
2013-07-31 00:48:00,59.9,59.6,30.10,SSW,202,0.0,-999.0,99,-99.99,,,0.00,Acu-Link.com,2013-07-31 04:48:00,
2013-07-31 01:03:00,60.1,59.8,30.10,SSE,157,0.0,-999.0,99,-99.99,,,0.00,Acu-Link.com,2013-07-31 05:03:00,
2013-07-31 01:18:00,60.1,59.8,30.10,SW,225,0.0,-999.0,99,-99.99,,,0.00,Acu-Link.com,2013-07-31 05:18:00,
2013-07-31 01:33:00,60.4,60.1,30.09,South,180,0.0,-999.0,99,-99.99,,,0.00,Acu-Link.com,2013-07-31 05:33:00,
2013-07-31 01:49:00,60.4,60.1,30.09,SSE,157,0.0,-999.0,99,-99.99,,,0.00,Acu-Link.com,2013-07-31 05:49:00,
2013-07-31 02:04:00,60.4,60.1,30.09,SSW,202,0.0,-999.0,99,-99.99,,,0.00,Acu-Link.com,2013-07-31 06:04:00,
2013-07-31 02:19:00,60.4,60.1,30.09,SSE,157,0.0,-999.0,99,-99.99,,,0.00,Acu-Link.com,2013-07-31 06:19:00,
2013-07-31 02:35:00,60.8,60.5,30.09,SSW,202,0.0,-999.0,99,-99.99,,,0.00,Acu-Link.com,2013-07-31 06:35:00,
2013-07-31 02:50:00,61.2,60.9,30.09,SSW,202,0.0,-999.0,99,-99.99,,,0.00,Acu-Link.com,2013-07-31 06:50:00,
2013-07-31 03:05:00,61.3,61.0,30.09,South,180,0.0,-999.0,99,-99.99,,,0.00,Acu-Link.com,2013-07-31 07:05:00,
2013-07-31 03:21:00,61.3,61.0,30.09,SSE,157,0.0,-999.0,99,-99.99,,,0.00,Acu-Link.com,2013-07-31 07:21:00,
2013-07-31 03:51:00,61.2,60.9,30.08,East,90,0.0,-999.0,99,-99.99,,,0.00,Acu-Link.com,2013-07-31 07:51:00,
2013-07-31 04:06:00,61.3,61.0,30.08,WSW,247,0.0,-999.0,99,-99.99,,,0.00,Acu-Link.com,2013-07-31 08:06:00,
2013-07-31 04:21:00,61.3,61.0,30.08,ESE,112,0.0,-999.0,99,-99.99,,,0.00,Acu-Link.com,2013-07-31 08:21:00,
2013-07-31 04:52:00,62.1,61.8,30.08,SW,225,0.0,-999.0,99,-99.99,,,0.00,Acu-Link.com,2013-07-31 08:52:00,
2013-07-31 05:07:00,61.5,61.2,30.09,SSE,157,0.0,-999.0,99,-99.99,,,0.00,Acu-Link.com,2013-07-31 09:07:00,
2013-07-31 05:22:00,61.7,61.4,30.09,ESE,112,0.0,-999.0,99,-99.99,,,0.00,Acu-Link.com,2013-07-31 09:22:00,
2013-07-31 05:38:00,61.7,60.5,30.08,SSE,157,0.0,-999.0,96,-99.99,,,0.00,Acu-Link.com,2013-07-31 09:38:00,
2013-07-31 05:53:00,60.8,58.5,30.09,NNW,337,1.7,-999.0,92,-99.99,,,0.00,Acu-Link.com,2013-07-31 09:53:00,
2013-07-31 06:08:00,61.2,58.2,30.09,SW,225,0.0,-999.0,90,-99.99,,,0.00,Acu-Link.com,2013-07-31 10:08:00,
2013-07-31 06:24:00,60.8,57.8,30.10,ENE,67,0.0,-999.0,90,-99.99,,,0.00,Acu-Link.com,2013-07-31 10:24:00,
2013-07-31 06:39:00,60.4,57.1,30.09,East,90,0.0,-999.0,89,-99.99,,,0.00,Acu-Link.com,2013-07-31 10:39:00,
2013-07-31 06:54:00,61.2,57.6,30.09,NE,45,0.0,-999.0,88,-99.99,,,0.00,Acu-Link.com,2013-07-31 10:54:00,
2013-07-31 07:09:00,62.1,58.5,30.09,East,90,0.0,-999.0,88,-99.99,,,0.00,Acu-Link.com,2013-07-31 11:09:00,
2013-07-31 07:25:00,61.7,59.7,30.10,NE,45,0.0,-999.0,93,-99.99,,,0.00,Acu-Link.com,2013-07-31 11:25:00,
2013-07-31 07:40:00,61.2,59.8,30.09,East,90,0.0,-999.0,95,-99.99,,,0.00,Acu-Link.com,2013-07-31 11:40:00,
2013-07-31 07:55:00,61.7,60.5,30.09,SE,135,0.0,-999.0,96,-99.99,,,0.00,Acu-Link.com,2013-07-31 11:55:00,
2013-07-31 08:11:00,61.9,60.5,30.10,SE,135,2.2,-999.0,95,-99.99,,,0.00,Acu-Link.com,2013-07-31 12:11:00,
2013-07-31 08:26:00,63.1,60.7,30.09,SE,135,0.0,-999.0,92,-99.99,,,0.00,Acu-Link.com,2013-07-31 12:26:00,
2013-07-31 08:41:00,64.4,62.0,30.08,South,180,0.0,-999.0,92,-99.99,,,0.00,Acu-Link.com,2013-07-31 12:41:00,
2013-07-31 09:12:00,66.2,63.2,30.09,South,180,0.0,-999.0,90,-99.99,,,0.00,Acu-Link.com,2013-07-31 13:12:00,
2013-07-31 09:27:00,67.5,64.1,30.08,West,270,0.0,-999.0,89,-99.99,,,0.00,Acu-Link.com,2013-07-31 13:27:00,
2013-07-31 09:42:00,67.8,64.8,30.08,SSE,157,0.0,-999.0,90,-99.99,,,0.00,Acu-Link.com,2013-07-31 13:42:00,
2013-07-31 09:58:00,70.0,65.6,30.07,SSW,202,0.0,-999.0,86,-99.99,,,0.00,Acu-Link.com,2013-07-31 13:58:00,
2013-07-31 10:13:00,69.4,65.0,30.07,ENE,67,1.1,-999.0,86,-99.99,,,0.00,Acu-Link.com,2013-07-31 14:13:00,
2013-07-31 10:28:00,68.5,62.8,30.07,SSW,202,0.0,-999.0,82,-99.99,,,0.00,Acu-Link.com,2013-07-31 14:28:00,
2013-07-31 10:43:00,69.1,62.7,30.06,NNW,337,0.0,-999.0,80,-99.99,,,0.00,Acu-Link.com,2013-07-31 14:43:00,
2013-07-31 10:59:00,69.6,63.9,30.05,West,270,0.0,-999.0,82,-99.99,,,0.00,Acu-Link.com,2013-07-31 14:59:00,
2013-07-31 11:14:00,69.6,65.2,30.05,WSW,247,0.0,-999.0,86,-99.99,,,0.00,Acu-Link.com,2013-07-31 15:14:00,
2013-07-31 11:29:00,73.9,66.6,30.06,West,270,0.0,-999.0,78,-99.99,,,0.00,Acu-Link.com,2013-07-31 15:29:00,
2013-07-31 11:45:00,73.2,65.2,30.06,ESE,112,0.0,-999.0,76,-99.99,,,0.00,Acu-Link.com,2013-07-31 15:45:00,
2013-07-31 12:00:00,72.5,64.1,30.05,East,90,2.2,-999.0,75,-99.99,,,0.00,Acu-Link.com,2013-07-31 16:00:00,
2013-07-31 12:15:00,71.2,64.7,30.05,East,90,2.2,-999.0,80,-99.99,,,0.00,Acu-Link.com,2013-07-31 16:15:00,
2013-07-31 12:30:00,71.2,65.4,30.04,West,270,0.0,-999.0,82,-99.99,,,0.00,Acu-Link.com,2013-07-31 16:30:00,
2013-07-31 12:46:00,69.6,64.2,30.04,East,90,2.2,-999.0,83,-99.99,,,0.00,Acu-Link.com,2013-07-31 16:46:00,
2013-07-31 13:01:00,69.4,64.0,30.04,NW,315,2.2,-999.0,83,-99.99,,,0.00,Acu-Link.com,2013-07-31 17:01:00,
2013-07-31 13:16:00,69.4,64.7,30.04,East,90,0.0,-999.0,85,-99.99,,,0.00,Acu-Link.com,2013-07-31 17:16:00,
2013-07-31 13:31:00,67.3,62.6,30.04,SSE,157,2.2,-999.0,85,-99.99,,,0.00,Acu-Link.com,2013-07-31 17:31:00,
2013-07-31 13:47:00,65.3,60.7,30.04,South,180,1.7,-999.0,85,-99.99,,,0.01,Acu-Link.com,2013-07-31 17:47:00,
2013-07-31 14:02:00,64.8,61.2,30.04,SSW,202,2.2,-999.0,88,-99.99,,,0.01,Acu-Link.com,2013-07-31 18:02:00,
2013-07-31 14:17:00,63.9,59.0,30.04,ESE,112,1.1,-999.0,84,-99.99,,,0.02,Acu-Link.com,2013-07-31 18:17:00,
2013-07-31 14:33:00,64.9,61.3,30.03,SSW,202,0.0,-999.0,88,-99.99,,,0.03,Acu-Link.com,2013-07-31 18:33:00,
2013-07-31 14:48:00,65.3,61.7,30.03,SW,225,0.0,-999.0,88,-99.99,,,0.03,Acu-Link.com,2013-07-31 18:48:00,
2013-07-31 15:03:00,66.0,62.0,30.02,ESE,112,0.0,-999.0,87,-99.99,,,0.03,Acu-Link.com,2013-07-31 19:03:00,
2013-07-31 15:19:00,66.0,62.3,30.02,SSE,157,0.0,-999.0,88,-99.99,,,0.03,Acu-Link.com,2013-07-31 19:19:00,
2013-07-31 15:34:00,66.7,62.7,30.02,SSW,202,0.0,-999.0,87,-99.99,,,0.03,Acu-Link.com,2013-07-31 19:34:00,
2013-07-31 15:49:00,66.7,63.4,30.01,SSE,157,0.0,-999.0,89,-99.99,,,0.03,Acu-Link.com,2013-07-31 19:49:00,
2013-07-31 16:04:00,66.9,63.2,30.00,WSW,247,0.0,-999.0,88,-99.99,,,0.03,Acu-Link.com,2013-07-31 20:04:00,
2013-07-31 16:20:00,68.2,63.5,30.00,South,180,0.0,-999.0,85,-99.99,,,0.03,Acu-Link.com,2013-07-31 20:20:00,
2013-07-31 16:35:00,68.9,62.8,29.99,WNW,292,0.0,-999.0,81,-99.99,,,0.03,Acu-Link.com,2013-07-31 20:35:00,
2013-07-31 16:50:00,68.0,62.3,29.98,South,180,0.0,-999.0,82,-99.99,,,0.03,Acu-Link.com,2013-07-31 20:50:00,
2013-07-31 17:05:00,68.4,62.0,29.98,SE,135,0.0,-999.0,80,-99.99,,,0.03,Acu-Link.com,2013-07-31 21:05:00,
2013-07-31 17:21:00,68.2,63.2,29.98,West,270,0.0,-999.0,84,-99.99,,,0.03,Acu-Link.com,2013-07-31 21:21:00,
2013-07-31 17:51:00,65.5,62.2,29.98,ESE,112,0.0,-999.0,89,-99.99,,,0.03,Acu-Link.com,2013-07-31 21:51:00,
2013-07-31 18:22:00,63.9,61.2,29.97,SSE,157,0.0,-999.0,91,-99.99,,,0.03,Acu-Link.com,2013-07-31 22:22:00,
2013-07-31 18:37:00,63.5,61.1,29.96,SSE,157,1.7,-999.0,92,-99.99,,,0.04,Acu-Link.com,2013-07-31 22:37:00,
2013-07-31 18:52:00,63.3,61.2,29.96,South,180,0.0,-999.0,93,-99.99,,,0.05,Acu-Link.com,2013-07-31 22:52:00,
2013-07-31 19:07:00,63.0,60.9,29.96,SSE,157,0.0,-999.0,93,-99.99,,,0.05,Acu-Link.com,2013-07-31 23:07:00,
2013-07-31 19:22:00,62.6,61.1,29.96,South,180,1.7,-999.0,95,-99.99,,,0.05,Acu-Link.com,2013-07-31 23:22:00,
2013-07-31 19:38:00,62.2,61.3,29.96,South,180,1.7,-999.0,97,-99.99,,,0.05,Acu-Link.com,2013-07-31 23:38:00,
2013-07-31 19:53:00,62.2,61.6,29.96,SSE,157,0.0,-999.0,98,-99.99,,,0.05,Acu-Link.com,2013-07-31 23:53:00,
2013-07-31 20:08:00,62.2,61.6,29.96,SSE,157,0.0,-999.0,98,-99.99,,,0.05,Acu-Link.com,2013-08-01 00:08:00,
2013-07-31 20:24:00,62.4,62.1,29.95,ESE,112,1.1,-999.0,99,-99.99,,,0.05,Acu-Link.com,2013-08-01 00:24:00,
2013-07-31 20:39:00,62.4,62.1,29.95,WSW,247,0.0,-999.0,99,-99.99,,,0.05,Acu-Link.com,2013-08-01 00:39:00,
2013-07-31 20:54:00,62.6,62.3,29.96,SSW,202,0.0,-999.0,99,-99.99,,,0.06,Acu-Link.com,2013-08-01 00:54:00,
2013-07-31 21:09:00,62.8,62.5,29.95,East,90,0.0,-999.0,99,-99.99,,,0.06,Acu-Link.com,2013-08-01 01:09:00,
2013-07-31 21:25:00,63.0,62.7,29.96,SW,225,0.0,-999.0,99,-99.99,,,0.06,Acu-Link.com,2013-08-01 01:25:00,
2013-07-31 21:40:00,63.0,62.7,29.96,SSW,202,0.0,-999.0,99,-99.99,,,0.06,Acu-Link.com,2013-08-01 01:40:00,
2013-07-31 21:55:00,63.0,62.7,29.96,SSE,157,0.0,-999.0,99,-99.99,,,0.06,Acu-Link.com,2013-08-01 01:55:00,
2013-07-31 22:10:00,63.0,62.7,29.96,SSW,202,0.0,-999.0,99,-99.99,,,0.06,Acu-Link.com,2013-08-01 02:10:00,
2013-07-31 22:26:00,62.4,62.1,29.96,North,0,0.0,-999.0,99,-99.99,,,0.06,Acu-Link.com,2013-08-01 02:26:00,
2013-07-31 22:41:00,61.9,61.6,29.96,NNE,22,0.0,-999.0,99,-99.99,,,0.07,Acu-Link.com,2013-08-01 02:41:00,
2013-07-31 22:56:00,61.7,61.4,29.95,East,90,2.2,-999.0,99,-99.99,,,0.07,Acu-Link.com,2013-08-01 02:56:00,
2013-07-31 23:12:00,61.7,61.4,29.95,North,0,1.1,-999.0,99,-99.99,,,0.09,Acu-Link.com,2013-08-01 03:12:00,
2013-07-31 23:27:00,61.9,61.6,29.94,SW,225,0.0,-999.0,99,-99.99,,,0.11,Acu-Link.com,2013-08-01 03:27:00,
2013-07-31 23:42:00,62.2,61.9,29.94,ESE,112,0.0,-999.0,99,-99.99,,,0.13,Acu-Link.com,2013-08-01 03:42:00,
2013-07-31 23:58:00,62.4,62.1,29.94,ESE,112,0.0,-999.0,99,-99.99,,,0.13,Acu-Link.com,2013-08-01 03:58:00,